DW2893 Weather Reports


Display with metric or nautical units.
time (UTC)temp
F
wind
direction
speed
MPH
gust
MPH
rain 1hr
in
rain 24hr
in
rain mn
in
humidity
%
barometer
mb
20260503185307 82 206 8.0 16.0 0.00 0.00 0.00 35 1017.5
20260503184808 82 238 6.0 16.0 0.00 0.00 0.00 36 1017.5
20260503183807 82 216 7.0 20.0 0.00 0.00 0.00 37 1017.5
20260503183307 81 204 7.0 16.0 0.00 0.00 0.00 36 1017.5
20260503181307 81 254 6.0 12.0 0.00 0.00 0.00 38 1017.8
20260503180808 82 212 7.0 15.0 0.00 0.00 0.00 38 1018.0
20260503180307 80 199 7.0 12.0 0.00 0.00 0.00 39 1018.0
20260503175807 80 209 7.0 14.0 0.00 0.00 0.00 40 1018.4
20260503173307 80 285 7.0 14.0 0.00 0.00 0.00 41 1018.8
20260503172307 79 225 5.0 13.0 0.00 0.00 0.00 42 1018.8
20260503171307 79 200 6.0 15.0 0.00 0.00 0.00 42 1019.1
20260503131306 62 229 3.0 7.0 0.00 0.00 0.00 67 1018.9
20260503130806 62 196 3.0 7.0 0.00 0.00 0.00 67 1018.9
20260503110306 59 223 3.0 7.0 0.00 0.00 0.00 69 1018.1
20260503081305 62 215 4.0 8.0 0.00 0.00 0.00 62 1017.7
20260503080805 62 212 4.0 7.0 0.00 0.00 0.00 62 1017.8
20260503080306 62 207 4.0 8.0 0.00 0.00 0.00 61 1017.8
20260503071805 63 200 3.0 7.0 0.00 0.00 0.00 59 1018.1
20260503070805 63 208 4.0 7.0 0.00 0.00 0.00 58 1018.2
20260503070305 63 205 4.0 7.0 0.00 0.00 0.00 58 1018.2
20260503054805 62 180 3.0 6.0 0.00 0.00 0.00 60 1017.9
20260503053805 62 176 4.0 6.0 0.00 0.00 0.00 59 1017.9
20260503053304 63 176 4.0 6.0 0.00 0.00 0.00 59 1017.8
20260503052306 63 170 4.0 6.0 0.00 0.00 0.00 58 1017.8
20260503051804 63 165 3.0 5.0 0.00 0.00 0.00 58 1017.8
20260503050929 64 164 3.0 5.0 0.00 0.00 0.00 56 1017.7
20260503045805 64 161 4.0 6.0 0.00 0.00 0.00 55 1017.7
20260503044805 64 169 5.0 6.0 0.00 0.00 0.00 55 1017.8
20260503044304 65 167 5.0 8.0 0.00 0.00 0.00 54 1017.8
20260503040304 66 173 5.0 8.0 0.00 0.00 0.00 54 1017.8
20260503033804 66 171 3.0 5.0 0.00 0.00 0.00 55 1017.8
20260503030304 67 209 2.0 3.0 0.00 0.00 0.00 53 1017.5
20260503025805 67 209 2.0 3.0 0.00 0.00 0.00 53 1017.5
20260503023804 68 220 2.0 3.0 0.00 0.00 0.00 52 1017.3
20260503023304 68 220 2.0 3.0 0.00 0.00 0.00 51 1017.2
20260503022305 68 220 2.0 3.0 0.00 0.00 0.00 50 1017.1
20260503021804 68 220 2.0 3.0 0.00 0.00 0.00 50 1017.1
20260503021304 69 221 1.0 3.0 0.00 0.00 0.00 49 1017.1
20260503020804 69 221 2.0 3.0 0.00 0.00 0.00 49 1017.0
20260503020304 69 221 2.0 3.0 0.00 0.00 0.00 48 1017.0
20260503015804 69 221 2.0 3.0 0.00 0.00 0.00 48 1016.9
20260503012809 71 221 2.0 3.0 0.00 0.00 0.00 44 1016.8
20260503011808 72 222 1.0 3.0 0.00 0.00 0.00 43 1016.8
20260503011308 73 222 1.0 3.0 0.00 0.00 0.00 42 1016.7
20260503010808 73 222 1.0 2.0 0.00 0.00 0.00 42 1016.7
20260503010308 73 223 1.0 3.0 0.00 0.00 0.00 41 1016.7
20260503005809 73 222 1.0 3.0 0.00 0.00 0.00 41 1016.7
20260503005308 74 225 2.0 3.0 0.00 0.00 0.00 41 1016.7
20260503003308 75 280 3.0 8.0 0.00 0.00 0.00 39 1016.6
20260503002808 75 308 4.0 6.0 0.00 0.00 0.00 39 1016.6
20260503001308 76 274 5.0 12.0 0.00 0.00 0.00 38 1016.6
20260503000308 77 278 3.0 6.0 0.00 0.00 0.00 37 1016.5
20260502235808 77 244 3.0 6.0 0.00 0.00 0.00 37 1016.6
20260502235308 76 262 3.0 5.0 0.00 0.00 0.00 37 1016.6
20260502234808 77 263 5.0 12.0 0.00 0.00 0.00 36 1016.7
20260502233308 77 253 1.0 3.0 0.00 0.00 0.00 36 1016.7
20260502231808 77 333 3.0 9.0 0.00 0.00 0.00 34 1016.8
20260502225308 78 294 5.0 12.0 0.00 0.00 0.00 35 1016.7
20260502221307 78 277 5.0 12.0 0.00 0.00 0.00 33 1017.1
20260502220807 78 227 3.0 7.0 0.00 0.00 0.00 33 1017.2
20260502220308 77 218 3.0 12.0 0.00 0.00 0.00 34 1017.2
20260502213808 78 326 6.0 12.0 0.00 0.00 0.00 33 1017.3
20260502212807 77 20 3.0 10.0 0.00 0.00 0.00 35 1017.5
20260502211807 77 350 7.0 12.0 0.00 0.00 0.00 35 1017.7
20260502211307 77 25 3.0 7.0 0.00 0.00 0.00 35 1017.7
20260502210807 76 48 4.0 8.0 0.00 0.00 0.00 34 1017.7
20260502210307 76 26 6.0 10.0 0.00 0.00 0.00 34 1017.9
20260502204807 77 14 5.0 10.0 0.00 0.00 0.00 32 1018.0
20260502204308 77 328 5.0 8.0 0.00 0.00 0.00 35 1018.2
20260502203807 77 9 5.0 9.0 0.00 0.00 0.00 34 1018.2
20260502203307 77 26 4.0 10.0 0.00 0.00 0.00 33 1018.2
20260502200807 75 263 3.0 8.0 0.00 0.00 0.00 32 1018.7
20260502194307 74 275 3.0 6.0 0.00 0.00 0.00 35 1018.7
20260502193307 75 265 5.0 12.0 0.00 0.00 0.00 35 1018.9
20260502191807 75 32 5.0 9.0 0.00 0.00 0.00 34 1019.1
20260502190307 75 335 4.0 7.0 0.00 0.00 0.00 35 1019.1